Hourly Data Report for March 27, 2015

All times are specified in Local Standard Time (LST). Add 1 hour to adjust for Daylight Saving Time where and when it is observed.

MIRAMICHI RCS
NEW BRUNSWICK

47°00'34.000" N
65°27'54.000" W
33.00 m
8100989
71744
ACQ

Download Data

Hourly Data (March 2015)
Hourly Data Report for March 27, 2015
TIME Temp Definition
°C
Dew Point Definition
°C
Rel Hum Definition
%
Wind Dir Definition
10's deg

Wind Spd Definition
km/h
Visibility Definition
km
Stn Press Definition
kPa
Hmdx Definition


Wind Chill Definition


Weather Definition


00:00 2.9 1.0 88 25 7   99.90     LegendNANA
01:00 2.7 0.8 87 26 9   99.91     LegendNANA
02:00 2.4 0.7 89 25 6   99.88     LegendNANA
03:00 2.0 0.5 90 27 5   99.90     LegendNANA
04:00 1.2 -0.1 92 25 5   99.90     LegendNANA
05:00 1.5 0.1 91 26 4   99.88     LegendNANA
06:00 0.8 -0.4 92 26 4   99.89     LegendNANA
07:00 1.2 0.1 93 28 5   99.95     LegendNANA
08:00 1.7 -0.3 87 25 4   99.98     LegendNANA
09:00 3.5 -2.3 66 30 8   100.03     LegendNANA
10:00 3.8 -2.9 61 29 8   100.03     LegendNANA
11:00 4.6 -3.2 57 29 13   100.01     LegendNANA
12:00 6.1 -3.8 49 30 7   100.00     LegendNANA
13:00 6.2 -4.2 47 29 11   99.94     LegendNANA
14:00 6.5 -4.5 46 27 11   99.87     LegendNANA
15:00 6.8 -4.4 45 29 7   99.89     LegendNANA
16:00 7.0 -4.4 44 27 10   99.84     LegendNANA
17:00 6.5 -3.9 47 29 10   99.97     LegendNANA
18:00 5.7 -4.1 50 29 10   100.02     LegendNANA
19:00 4.5 -4.0 54 29 5   100.10     LegendNANA
20:00 2.5 -2.8 68 4 9   100.18     LegendNANA
21:00 2.0 -3.2 69 3 5   100.26     LegendNANA
22:00 1.8 -5.5 58 36 6   100.33     LegendNANA
23:00 0.5 -8.8 50 34 10   100.38     LegendNANA

Notes on Data Quality.

Legend

  • E = Estimated
  • M = Missing
  • NA = Not Available
Date modified: